Bloomington, IN

6:48 AM EDT on August 30, 2016 (GMT -0400)
Monroe County

Weather History for KBMG - March, 2013

Change the Weather History Date:

Monday, March 4, 2013

  Actual Average Record
Temperature  
Mean Temperature 30 °F 38 °F  
Max Temperature 40 °F 49 °F 62 °F (2004)
Min Temperature 19 °F 28 °F 4 °F (2014)
Degree Days  
Heating Degree Days 35 27  
Month to date heating degree days 138 109  
Since 1 July heating degree days 4094 4177  
Cooling Degree Days 0 0  
Month to date cooling degree days 0 0  
Year to date cooling degree days 0 0  
Moisture  
Dew Point 19 °F    
Average Humidity 64    
Maximum Humidity 84    
Minimum Humidity 44    
Precipitation  
Precipitation T in 0.09 in 1.00 in (2008)
Month to date precipitation 0.03 0.32  
Year to date precipitation 8.04 6.39  
Sea Level Pressure  
Sea Level Pressure 30.05 in    
Wind  
Wind Speed 7 mph (ESE)    
Max Wind Speed 17 mph    
Max Gust Speed 22 mph    
Visibility 10 miles    
Events Rain    
T = Trace of Precipitation, MM = Missing Value Source: NWS Daily Summary

Daily Weather History Graph

Daily Weather History Graph

Search for Another Location

Airport or City:

Trip Planner

Search our weather history database for the weather conditions in past years. The results will help you decide how hot, cold, wet, or windy it might be!

Date:

Astronomy

Mar. 04, 2013 Rise Set
Actual Time 7:14 AM EST 6:42 PM EST
Civil Twilight 6:47 AM EST 7:09 PM EST
Nautical Twilight 6:16 AM EST 7:40 PM EST
Astronomical Twilight 5:45 AM EST 8:11 PM EST
Moon 1:21 AM EST (3/4) 11:25 AM EST (3/4)
Length of Visible Light 12h 21m
Length of Day
11h 28m
Waning Gibbous, 52% of the Moon is Illuminated
Mar 4
Waning Gibbous
Mar 4
Last Quarter
Mar 11
New
Mar 19
First Quarter
Mar 27
Full

Hourly Weather History & Observations

Time (EST) Temp. Windchill Dew Point Humidity Pressure Visibility Wind Dir Wind Speed Gust Speed Precip Events Conditions
12:53 AM 21.9 °F - 17.1 °F 82% 30.12 in 10.0 mi Calm Calm - N/A   Clear
1:53 AM 21.0 °F - 15.1 °F 78% 30.13 in 10.0 mi Calm Calm - N/A   Clear
2:53 AM 19.9 °F - 16.0 °F 85% 30.12 in 10.0 mi Calm Calm - N/A   Clear
3:53 AM 21.0 °F - 16.0 °F 81% 30.12 in 10.0 mi Calm Calm - N/A   Clear
4:53 AM 19.9 °F - 15.1 °F 81% 30.13 in 10.0 mi Calm Calm - N/A   Clear
5:53 AM 19.9 °F - 16.0 °F 85% 30.13 in 10.0 mi Calm Calm - N/A   Clear
6:53 AM 19.9 °F 14.9 °F 16.0 °F 85% 30.13 in 9.0 mi East 3.5 mph - N/A   Clear
7:53 AM 24.1 °F 18.2 °F 19.0 °F 81% 30.13 in 10.0 mi SE 4.6 mph - N/A   Clear
8:53 AM 26.1 °F 18.4 °F 19.0 °F 75% 30.12 in 10.0 mi SE 6.9 mph - N/A   Partly Cloudy
9:53 AM 30.0 °F 22.4 °F 21.0 °F 69% 30.12 in 10.0 mi SE 8.1 mph - N/A   Clear
10:53 AM 33.1 °F 25.5 °F 19.9 °F 59% 30.11 in 10.0 mi ESE 9.2 mph - N/A   Mostly Cloudy
11:53 AM 35.1 °F 29.3 °F 18.0 °F 50% 30.09 in 10.0 mi SE 6.9 mph - N/A   Overcast
12:53 PM 35.1 °F 26.9 °F 17.1 °F 48% 30.06 in 9.0 mi SSE 11.5 mph - N/A   Overcast
1:53 PM 37.0 °F 29.8 °F 21.0 °F 52% 30.03 in 9.0 mi SE 10.4 mph - 0.00 in   Overcast
2:53 PM 37.0 °F 28.1 °F 21.0 °F 52% 29.99 in 10.0 mi ESE 15.0 mph - N/A   Overcast
3:53 PM 37.9 °F 29.2 °F 19.9 °F 48% 29.98 in 10.0 mi ESE 15.0 mph 20.7 mph N/A   Overcast
4:53 PM 39.0 °F 31.0 °F 19.9 °F 46% 29.96 in 10.0 mi ESE 13.8 mph - N/A   Mostly Cloudy
5:53 PM 39.0 °F 32.8 °F 19.9 °F 46% 29.94 in 10.0 mi ESE 9.2 mph - N/A   Mostly Cloudy
6:53 PM 39.0 °F 31.4 °F 19.9 °F 46% 29.94 in 10.0 mi ESE 12.7 mph - N/A   Overcast
7:53 PM 39.0 °F 33.4 °F 21.0 °F 49% 29.97 in 10.0 mi SE 8.1 mph - N/A   Overcast
8:53 PM 39.0 °F 34.0 °F 21.9 °F 50% 29.97 in 10.0 mi ESE 6.9 mph - 0.00 in   Overcast
9:53 PM 39.0 °F 32.3 °F 21.9 °F 50% 29.96 in 10.0 mi ESE 10.4 mph - 0.00 in   Overcast
10:53 PM 39.0 °F 32.3 °F 23.0 °F 53% 29.95 in 10.0 mi ESE 10.4 mph - N/A   Overcast
11:53 PM 39.0 °F 34.0 °F 24.1 °F 55% 29.93 in 10.0 mi ESE 6.9 mph - 0.00 in Rain Light Rain